Wind_Speed
24 23 24 25 33 41 36 30 27 32 28 24 22 20 19 12 14 16 15 13 14 13 12 12 13 13 13 13 13 11 13 13
23 24 24 27 29 40 41 36 29 29 31 25 21 19 21 15 14 18 16 15 15 14 12 12 13 14 14 13 12 12 13 12
21 26 27 30 30 32 40 31 36 26 29 24 23 22 26 17 14 14 17 17 15 13 13 13 14 17 17 16 16 14 12 14
16 19 25 28 30 29 28 26 34 27 29 28 28 24 26 31 23 20 20 19 16 15 15 15 16 17 17 16 15 15 14 15
11 14 19 21 24 23 27 27 27 27 33 32 26 26 27 25 26 26 22 20 18 16 16 16 16 15 17 18 15 15 16 15
12 8 18 16 19 27 29 26 22 25 27 25 23 18 25 31 27 25 23 20 18 18 18 18 19 18 18 15 15 14 16 14
11 11 15 14 15 19 19 28 23 25 29 28 24 24 22 34 32 27 24 20 20 19 18 18 18 18 16 17 16 14 15 14
13 15 16 18 13 8 12 18 21 23 30 31 25 23 32 33 32 27 22 22 22 20 18 16 17 17 18 19 19 14 15 15
15 15 19 19 16 13 14 16 13 22 28 26 23 27 30 36 32 27 25 24 23 23 20 18 18 17 18 18 16 14 16 15
16 16 16 13 12 13 17 21 19 23 28 30 34 35 36 36 29 28 28 26 25 25 21 20 19 17 16 16 16 16 13 14
16 11 13 19 20 22 21 23 25 30 32 27 28 39 42 37 31 31 30 23 27 27 23 20 18 15 16 17 17 17 14 13
13 9 12 17 19 16 18 19 21 22 33 28 39 39 45 37 40 35 35 33 30 27 24 21 18 16 16 18 18 18 16 16
10 8 13 16 17 12 15 7 14 26 37 39 33 44 47 43 38 39 38 33 29 25 24 20 18 17 18 18 19 19 18 17
10 8 11 12 13 10 5 11 17 35 35 32 31 44 48 51 46 39 35 32 29 25 24 21 20 17 17 18 18 20 20 18
8 8 7 12 15 14 10 15 26 36 36 30 34 49 53 52 46 33 36 34 35 33 25 22 20 18 16 18 18 19 16 16
8 8 8 8 16 15 14 14 20 24 26 21 26 37 48 47 44 37 39 43 41 34 26 27 23 20 21 20 18 17 15 20
5 7 8 7 10 15 16 18 15 19 21 21 23 29 42 44 45 43 43 40 43 32 32 30 28 24 20 24 23 21 22 22
5 6 6 7 7 13 16 18 20 20 26 26 22 26 35 44 46 48 46 46 43 37 36 34 30 29 28 27 31 28 25 27
5 5 6 6 6 8 13 21 20 19 21 22 23 26 32 40 49 49 48 46 42 41 39 37 36 35 35 33 33 33 29 27
8 6 6 7 6 6 9 15 24 19 24 18 22 22 23 29 41 45 47 43 41 41 42 41 41 41 43 36 34 36 36 36
Wind_Direction
257 250 243 240 232 233 231 226 214 217 191 196 200 206 201 188 180 179 180 170 177 173 185 184 174 177 171 169 181 191 164 161
250 248 241 241 242 236 243 246 238 220 192 197 206 215 192 186 186 179 167 177 181 181 182 180 181 168 163 168 179 193 170 155
246 249 247 244 243 243 251 251 265 194 194 197 206 210 199 184 176 183 181 175 185 176 177 177 168 161 165 173 182 185 167 152
255 255 241 243 247 249 250 255 258 184 193 197 195 198 205 212 180 188 182 184 179 175 169 167 168 168 171 179 189 192 156 156
260 270 246 243 247 252 261 261 256 174 195 190 191 187 187 185 185 188 184 183 183 172 171 168 168 170 177 183 196 198 165 165
304 253 234 245 250 236 264 233 235 188 187 194 217 228 203 192 188 192 188 187 177 176 176 173 169 181 189 184 189 207 168 174
283 258 252 243 232 261 225 219 235 239 229 214 223 218 217 198 189 191 187 187 180 181 177 178 177 189 187 187 188 211 173 185
276 260 248 233 221 230 202 220 247 231 218 225 213 229 216 194 184 190 189 189 185 183 178 183 187 197 188 192 195 213 182 183
290 263 240 236 228 220 212 225 244 227 213 216 228 216 206 182 186 188 197 191 184 187 184 186 193 196 194 199 201 206 191 183
305 281 241 231 227 229 229 239 262 227 210 224 224 204 185 187 184 186 207 190 190 194 189 193 192 194 197 200 199 206 214 197
320 280 232 214 221 226 233 244 265 207 208 204 208 193 181 184 187 191 200 196 202 196 194 192 195 193 200 207 210 215 215 232
327 268 230 235 233 243 262 260 211 205 223 208 193 203 178 187 186 181 187 191 208 193 196 191 197 200 207 215 221 224 225 232
325 287 247 230 236 244 256 196 223 216 200 194 198 187 179 191 189 198 197 199 199 196 199 195 202 202 212 219 223 232 238 239
324 312 258 234 234 247 189 169 210 192 198 216 201 179 188 190 194 199 196 194 194 194 197 201 207 210 222 231 230 233 241 249
322 312 275 243 221 198 160 171 195 194 191 215 221 202 199 197 196 192 203 192 199 199 196 206 210 217 222 238 237 243 243 234
315 313 303 246 214 207 216 195 196 204 217 222 215 207 205 206 201 198 209 216 216 206 207 213 218 224 231 238 246 245 232 248
305 308 312 288 230 217 216 209 210 216 217 224 223 215 214 214 211 206 210 214 221 215 212 217 227 237 243 239 242 239 241 250
281 289 292 302 260 227 229 212 215 203 210 216 216 216 216 218 217 212 215 221 224 219 217 227 232 239 246 249 240 240 243 248
264 255 270 281 282 244 224 213 212 219 222 221 221 222 221 217 215 219 224 223 222 227 230 233 237 242 244 244 253 249 249 248
256 245 236 251 259 251 221 217 221 220 221 224 216 228 235 222 219 218 221 225 228 228 235 239 242 245 252 250 247 251 258 260
Height
3088 3090 3092 3092 3095 3095 3093 3077 3093 3099 3111 3114 3118 3122 3125 3129 3133 3136 3139 3141 3145 3146 3150 3153 3154 3156 3158 3159 3160 3161 3163 3164
3083 3084 3087 3086 3090 3088 3082 3091 3098 3078 3105 3112 3115 3120 3123 3128 3131 3134 3136 3141 3145 3148 3150 3151 3154 3155 3157 3159 3161 3163 3163 3166
3077 3079 3082 3081 3083 3085 3084 3088 3090 3068 3102 3107 3112 3116 3121 3125 3129 3133 3136 3139 3143 3146 3149 3151 3153 3154 3157 3159 3161 3162 3165 3167
3072 3073 3075 3076 3079 3081 3083 3086 3086 3070 3100 3102 3108 3113 3118 3125 3125 3132 3136 3140 3142 3145 3147 3149 3152 3154 3156 3159 3162 3161 3165 3167
3071 3071 3071 3074 3077 3079 3081 3082 3083 3081 3093 3097 3104 3111 3116 3121 3122 3129 3134 3138 3141 3143 3146 3149 3152 3154 3156 3159 3161 3162 3165 3168
3068 3066 3068 3072 3073 3076 3075 3080 3084 3090 3094 3099 3106 3110 3113 3117 3122 3128 3132 3137 3139 3143 3145 3148 3150 3154 3156 3160 3160 3161 3166 3168
3068 3066 3065 3067 3071 3072 3072 3077 3083 3089 3095 3098 3103 3109 3113 3114 3122 3126 3130 3135 3138 3141 3144 3148 3150 3153 3155 3158 3159 3160 3166 3167
3067 3065 3064 3065 3069 3071 3071 3076 3081 3086 3089 3094 3099 3105 3109 3113 3119 3124 3128 3134 3137 3140 3144 3147 3149 3152 3155 3157 3158 3160 3164 3166
3064 3063 3062 3062 3064 3066 3071 3074 3078 3080 3086 3091 3095 3101 3106 3111 3118 3123 3128 3132 3136 3138 3142 3145 3148 3151 3153 3156 3159 3160 3163 3166
3059 3059 3061 3061 3061 3063 3066 3068 3070 3075 3081 3087 3093 3098 3103 3111 3116 3122 3127 3129 3134 3137 3141 3144 3146 3149 3152 3155 3158 3159 3161 3165
3056 3055 3057 3059 3060 3061 3063 3064 3064 3071 3076 3083 3088 3096 3101 3107 3115 3120 3125 3127 3131 3135 3139 3142 3145 3147 3151 3154 3156 3158 3160 3162
3055 3053 3054 3056 3057 3059 3059 3057 3060 3065 3071 3077 3084 3091 3098 3103 3108 3114 3120 3125 3128 3133 3137 3140 3143 3146 3149 3152 3154 3156 3159 3160
3054 3053 3053 3054 3056 3056 3057 3053 3055 3062 3069 3077 3082 3087 3095 3100 3104 3110 3116 3120 3126 3130 3135 3138 3142 3144 3146 3149 3151 3154 3155 3158
3053 3052 3052 3053 3053 3054 3053 3054 3059 3064 3067 3075 3081 3087 3092 3096 3100 3108 3113 3118 3122 3128 3132 3136 3139 3141 3144 3146 3148 3151 3152 3154
3052 3052 3051 3052 3052 3053 3052 3055 3060 3064 3068 3073 3079 3082 3088 3093 3099 3106 3113 3117 3119 3122 3128 3134 3137 3139 3141 3143 3144 3146 3148 3149
3051 3050 3050 3050 3051 3053 3055 3056 3058 3063 3069 3073 3076 3081 3085 3091 3096 3103 3110 3115 3116 3119 3126 3130 3132 3135 3138 3140 3141 3143 3143 3142
3050 3049 3049 3049 3050 3052 3054 3056 3059 3063 3066 3070 3074 3079 3083 3087 3093 3100 3106 3109 3114 3115 3122 3125 3128 3131 3134 3137 3138 3140 3141 3141
3049 3049 3049 3049 3049 3051 3052 3054 3058 3060 3064 3067 3071 3075 3079 3084 3090 3096 3100 3105 3109 3112 3117 3121 3124 3126 3128 3130 3133 3135 3136 3137
3048 3048 3049 3049 3049 3050 3051 3053 3056 3060 3063 3066 3069 3072 3075 3079 3085 3090 3095 3099 3104 3107 3110 3114 3118 3120 3122 3123 3125 3127 3130 3131
3046 3047 3048 3049 3049 3050 3051 3052 3054 3057 3060 3063 3065 3068 3072 3077 3081 3085 3090 3095 3098 3102 3105 3108 3111 3114 3115 3114 3117 3120 3122 3123